Location: ??????
(55.6500°N, 37.8000°E)
Time: 11:14:21
(UTC+00:00)

ATLAS 5 CENTAUR R/B - Pass Details

Date: 14 April 2024
Orbit: 421 x 1169 km, 63.3° (Epoch: 18 May)

Event Time Altitude Azimuth Distance (km) Brightness Sun altitude
Rises 00:55:50 0° 307° (NW) 2,797 4.8 -12.0°
Reaches altitude 10° 00:57:52 10° 308° (NW) 1,991 4.0 -11.8°
Maximum altitude 01:02:24 87° 36° (NE) 728 1.9 -11.3°
Drops below altitude 10° 01:08:05 10° 128° (SE) 2,480 4.9 -10.6°
Sets 01:10:51 0° 129° (SE) 3,544 5.7 -10.3°
